Location: Hohe Wand Kleine Kanzel
(47.8330°N, 16.0170°E)
Time: 17:23:41
(UTC+02:00)

Courier 1B Rocket - Pass Details

Date: 03 August 2021
Orbit: 920 x 1202 km, 28.3° (Epoch: 23 September)

Event Time Altitude Azimuth Distance (km) Brightness Sun altitude
Rises 03:08:44 0° 229° (SW) 3,777 - -18.8°
Reaches altitude 10° 03:13:16 10° 202° (SSW) 2,757 - -18.4°
Maximum altitude 03:15:58 13° 178° (S) 2,525 - -18.2°
Exits shadow 03:17:35 12° 162° (SSE) 2,580 6.9 -18.0°
Drops below altitude 10° 03:18:36 10° 153° (SSE) 2,687 7.0 -17.9°
Sets 03:22:53 0° 126° (SE) 3,588 8.0 -17.5°
